Wetterdaten: Woche 10.11.14 - 16.11.14 (KW46)
Datum Zeit Temp. A. Feuchte A. Luftdruck Regen Wind Richtung Sonnenschein ET UV Solar Taupunkt Windchill Windben Empfang
10.11.2014 00:00 8,3 C 85 % 1009,4 hPa 0,0 l/m 0,7 km/h (0 Bft) O-SO 0,00 h 0,000 mm 0,0 UV-I 0 W/m 6,0 C 8,3 C 4,0 km/h (1 Bft) 0,00 %
10.11.2014 01:00 8,1 C 85 % 1009,4 hPa 0,3 l/m 0,7 km/h (0 Bft) N 0,00 h 0,000 mm 0,0 UV-I 0 W/m 5,7 C 8,1 C 2,0 km/h (1 Bft) 0,00 %
10.11.2014 02:00 7,9 C 85 % 1009,7 hPa 0,0 l/m 1,0 km/h (0 Bft) N-NO 0,00 h 0,000 mm 0,0 UV-I 0 W/m 5,5 C 7,9 C 4,0 km/h (1 Bft) 0,00 %
10.11.2014 03:00 7,9 C 85 % 1009,9 hPa 0,0 l/m 0,0 km/h (0 Bft) N 0,00 h 0,000 mm 0,0 UV-I 0 W/m 5,5 C 7,9 C 0,0 km/h (0 Bft) 0,00 %
10.11.2014 04:00 7,6 C 85 % 1010,1 hPa 0,0 l/m 0,3 km/h (0 Bft) S 0,00 h 0,000 mm 0,0 UV-I 0 W/m 5,3 C 7,6 C 1,0 km/h (0 Bft) 0,00 %
10.11.2014 05:00 7,5 C 85 % 1010,2 hPa 0,0 l/m 0,1 km/h (0 Bft) O-SO 0,00 h 0,000 mm 0,0 UV-I 0 W/m 5,1 C 7,5 C 1,0 km/h (0 Bft) 0,00 %
10.11.2014 06:00 7,4 C 85 % 1010,7 hPa 0,0 l/m 1,1 km/h (0 Bft) N 0,00 h 0,000 mm 0,0 UV-I 0 W/m 5,1 C 7,4 C 2,0 km/h (1 Bft) 0,00 %
10.11.2014 07:00 7,2 C 85 % 1011,3 hPa 0,0 l/m 0,3 km/h (0 Bft) N 0,00 h 0,000 mm 0,0 UV-I 14 W/m 4,9 C 7,2 C 2,0 km/h (1 Bft) 0,00 %
10.11.2014 08:00 7,2 C 85 % 1011,9 hPa 0,0 l/m 0,0 km/h (0 Bft) N 0,25 h 0,000 mm 1,0 UV-I 101 W/m 4,9 C 7,2 C 0,0 km/h (0 Bft) 0,00 %
10.11.2014 09:00 7,1 C 85 % 1012,5 hPa 0,0 l/m 0,1 km/h (0 Bft) N 1,00 h 0,000 mm 1,0 UV-I 229 W/m 4,8 C 7,1 C 1,0 km/h (0 Bft) 0,00 %
10.11.2014 10:00 7,5 C 85 % 1012,9 hPa 0,0 l/m 0,0 km/h (0 Bft) N 0,75 h 0,000 mm 1,0 UV-I 275 W/m 5,1 C 7,5 C 0,0 km/h (0 Bft) 0,00 %
10.11.2014 11:00 7,7 C 85 % 1012,6 hPa 0,0 l/m 0,0 km/h (0 Bft) N 1,00 h 0,000 mm 1,0 UV-I 304 W/m 5,3 C 7,7 C 0,0 km/h (0 Bft) 0,00 %
10.11.2014 12:00 8,0 C 84 % 1012,5 hPa 0,0 l/m 0,0 km/h (0 Bft) N 0,00 h 0,000 mm 1,0 UV-I 161 W/m 5,5 C 8,0 C 0,0 km/h (0 Bft) 0,00 %
10.11.2014 13:00 8,4 C 82 % 1012,3 hPa 0,0 l/m 0,0 km/h (0 Bft) N 0,25 h 0,000 mm 1,0 UV-I 149 W/m 5,5 C 8,4 C 0,0 km/h (0 Bft) 0,00 %
10.11.2014 14:00 8,3 C 82 % 1012,2 hPa 0,0 l/m 0,0 km/h (0 Bft) N 0,00 h 0,000 mm 0,0 UV-I 58 W/m 5,4 C 8,3 C 0,0 km/h (0 Bft) 0,00 %
10.11.2014 15:00 8,1 C 82 % 1012,1 hPa 0,0 l/m 0,0 km/h (0 Bft) N 0,00 h 0,000 mm 0,0 UV-I 1 W/m 5,2 C 8,1 C 0,0 km/h (0 Bft) 0,00 %
10.11.2014 16:00 7,9 C 83 % 1012,2 hPa 0,0 l/m 0,1 km/h (0 Bft) O-SO 0,00 h 0,000 mm 0,0 UV-I 0 W/m 5,1 C 7,9 C 1,0 km/h (0 Bft) 0,00 %
10.11.2014 17:00 7,5 C 83 % 1012,2 hPa 0,0 l/m 1,0 km/h (0 Bft) N 0,00 h 0,000 mm 0,0 UV-I 0 W/m 4,8 C 7,5 C 3,0 km/h (1 Bft) 0,00 %
10.11.2014 18:00 7,3 C 84 % 1012,5 hPa 0,0 l/m 0,0 km/h (0 Bft) N 0,00 h 0,000 mm 0,0 UV-I 0 W/m 4,8 C 7,3 C 0,0 km/h (0 Bft) 0,00 %
10.11.2014 19:00 7,3 C 84 % 1012,9 hPa 0,0 l/m 0,1 km/h (0 Bft) N 0,00 h 0,000 mm 0,0 UV-I 0 W/m 4,8 C 7,3 C 1,0 km/h (0 Bft) 0,00 %
10.11.2014 20:00 7,3 C 84 % 1012,9 hPa 0,0 l/m 0,0 km/h (0 Bft) N 0,00 h 0,000 mm 0,0 UV-I 0 W/m 4,8 C 7,3 C 0,0 km/h (0 Bft) 0,00 %
10.11.2014 21:00 7,1 C 85 % 1013,1 hPa 0,0 l/m 0,0 km/h (0 Bft) N 0,00 h 0,000 mm 0,0 UV-I 0 W/m 4,8 C 7,1 C 0,0 km/h (0 Bft) 0,00 %
10.11.2014 22:00 7,1 C 85 % 1012,8 hPa 0,0 l/m 0,0 km/h (0 Bft) N 0,00 h 0,000 mm 0,0 UV-I 0 W/m 4,8 C 7,1 C 0,0 km/h (0 Bft) 0,00 %
10.11.2014 23:00 7,1 C 85 % 1012,9 hPa 0,0 l/m 0,0 km/h (0 Bft) N 0,00 h 0,000 mm 0,0 UV-I 0 W/m 4,8 C 7,1 C 0,0 km/h (0 Bft) 0,00 %
11.11.2014 00:00 7,1 C 85 % 1012,8 hPa 0,0 l/m 0,0 km/h (0 Bft) N 0,00 h 0,000 mm 0,0 UV-I 0 W/m 4,7 C 7,1 C 0,0 km/h (0 Bft) 0,00 %
11.11.2014 01:00 6,9 C 84 % 1012,8 hPa 0,0 l/m 0,0 km/h (0 Bft) N 0,00 h 0,000 mm 0,0 UV-I 0 W/m 4,3 C 6,9 C 0,0 km/h (0 Bft) 0,00 %
11.11.2014 02:00 7,0 C 83 % 1012,4 hPa 0,0 l/m 0,1 km/h (0 Bft) N 0,00 h 0,000 mm 0,0 UV-I 0 W/m 4,3 C 7,0 C 1,0 km/h (0 Bft) 0,00 %
11.11.2014 03:00 6,9 C 83 % 1012,4 hPa 0,0 l/m 0,6 km/h (0 Bft) O-SO 0,00 h 0,000 mm 0,0 UV-I 0 W/m 4,3 C 6,9 C 1,0 km/h (0 Bft) 0,00 %
11.11.2014 04:00 7,0 C 83 % 1012,0 hPa 0,0 l/m 0,1 km/h (0 Bft) SO 0,00 h 0,000 mm 0,0 UV-I 0 W/m 4,3 C 7,0 C 1,0 km/h (0 Bft) 0,00 %
11.11.2014 05:00 7,0 C 84 % 1011,6 hPa 0,0 l/m 1,1 km/h (0 Bft) O-SO 0,00 h 0,000 mm 0,0 UV-I 0 W/m 4,5 C 7,0 C 2,0 km/h (1 Bft) 0,00 %
11.11.2014 06:00 7,2 C 84 % 1011,4 hPa 0,0 l/m 0,3 km/h (0 Bft) O 0,00 h 0,000 mm 0,0 UV-I 0 W/m 4,7 C 7,2 C 1,0 km/h (0 Bft) 0,00 %
11.11.2014 07:00 7,5 C 85 % 1011,3 hPa 0,0 l/m 0,4 km/h (0 Bft) O-SO 0,00 h 0,000 mm 0,0 UV-I 0 W/m 5,1 C 7,5 C 3,0 km/h (1 Bft) 0,00 %
11.11.2014 08:00 7,8 C 85 % 1010,9 hPa 0,0 l/m 2,1 km/h (1 Bft) O-SO 0,25 h 0,000 mm 1,0 UV-I 87 W/m 5,5 C 7,8 C 4,9 km/h (1 Bft) 0,00 %
11.11.2014 09:00 8,1 C 85 % 1010,3 hPa 0,0 l/m 3,8 km/h (1 Bft) O 1,00 h 0,000 mm 1,0 UV-I 190 W/m 5,8 C 8,0 C 5,9 km/h (2 Bft) 0,00 %
11.11.2014 10:00 8,6 C 84 % 1009,8 hPa 0,0 l/m 1,9 km/h (1 Bft) O 1,00 h 0,000 mm 1,0 UV-I 299 W/m 6,0 C 8,6 C 4,0 km/h (1 Bft) 0,00 %
11.11.2014 11:00 9,0 C 84 % 1009,3 hPa 0,0 l/m 4,1 km/h (1 Bft) O-SO 0,50 h 0,000 mm 1,0 UV-I 366 W/m 6,5 C 8,5 C 6,9 km/h (2 Bft) 0,00 %
11.11.2014 12:00 9,4 C 83 % 1008,0 hPa 0,0 l/m 4,0 km/h (1 Bft) O-SO 1,00 h 0,000 mm 1,0 UV-I 303 W/m 6,6 C 8,9 C 5,9 km/h (2 Bft) 0,00 %
11.11.2014 13:00 10,0 C 81 % 1007,4 hPa 0,0 l/m 2,3 km/h (1 Bft) S 1,00 h 0,000 mm 1,0 UV-I 300 W/m 6,9 C 10,0 C 5,0 km/h (1 Bft) 0,00 %
11.11.2014 14:00 10,4 C 81 % 1006,9 hPa 0,0 l/m 0,2 km/h (0 Bft) N 1,00 h 0,000 mm 1,0 UV-I 241 W/m 7,2 C 10,4 C 2,0 km/h (1 Bft) 0,00 %
11.11.2014 15:00 10,5 C 81 % 1006,4 hPa 0,0 l/m 0,3 km/h (0 Bft) N 0,75 h 0,000 mm 1,0 UV-I 84 W/m 7,4 C 10,5 C 2,0 km/h (1 Bft) 0,00 %
11.11.2014 16:00 10,2 C 82 % 1006,2 hPa 0,0 l/m 0,0 km/h (0 Bft) N 0,00 h 0,000 mm 0,0 UV-I 0 W/m 7,2 C 10,2 C 0,0 km/h (0 Bft) 0,00 %
11.11.2014 17:00 9,7 C 82 % 1006,0 hPa 0,0 l/m 0,0 km/h (0 Bft) N 0,00 h 0,000 mm 0,0 UV-I 0 W/m 6,8 C 9,7 C 0,0 km/h (0 Bft) 0,00 %
11.11.2014 18:00 9,1 C 83 % 1005,7 hPa 0,0 l/m 0,1 km/h (0 Bft) N 0,00 h 0,000 mm 0,0 UV-I 0 W/m 6,4 C 9,1 C 1,0 km/h (0 Bft) 0,00 %
11.11.2014 19:00 8,1 C 84 % 1005,5 hPa 0,0 l/m 0,0 km/h (0 Bft) N 0,00 h 0,000 mm 0,0 UV-I 0 W/m 5,5 C 8,1 C 0,0 km/h (0 Bft) 0,00 %
11.11.2014 20:00 7,1 C 85 % 1005,7 hPa 0,0 l/m 0,0 km/h (0 Bft) N 0,00 h 0,000 mm 0,0 UV-I 0 W/m 4,7 C 7,1 C 0,0 km/h (0 Bft) 0,00 %
11.11.2014 21:00 6,6 C 85 % 1005,8 hPa 0,0 l/m 0,0 km/h (0 Bft) N 0,00 h 0,000 mm 0,0 UV-I 0 W/m 4,2 C 6,6 C 0,0 km/h (0 Bft) 0,00 %
11.11.2014 22:00 6,6 C 85 % 1005,3 hPa 0,0 l/m 0,0 km/h (0 Bft) N 0,00 h 0,000 mm 0,0 UV-I 0 W/m 4,2 C 6,6 C 0,0 km/h (0 Bft) 0,00 %
11.11.2014 23:00 6,7 C 85 % 1004,9 hPa 0,0 l/m 0,0 km/h (0 Bft) N 0,00 h 0,000 mm 0,0 UV-I 0 W/m 4,3 C 6,7 C 0,0 km/h (0 Bft) 0,00 %
12.11.2014 00:00 6,7 C 86 % 1004,5 hPa 0,0 l/m 0,0 km/h (0 Bft) N 0,00 h 0,000 mm 0,0 UV-I 0 W/m 4,4 C 6,7 C 0,0 km/h (0 Bft) 0,00 %
12.11.2014 01:00 6,6 C 86 % 1004,0 hPa 0,0 l/m 0,0 km/h (0 Bft) N 0,00 h 0,000 mm 0,0 UV-I 0 W/m 4,4 C 6,6 C 0,0 km/h (0 Bft) 0,00 %
12.11.2014 02:00 6,4 C 85 % 1003,4 hPa 0,0 l/m 0,0 km/h (0 Bft) N 0,00 h 0,000 mm 0,0 UV-I 0 W/m 4,1 C 6,4 C 0,0 km/h (0 Bft) 0,00 %
12.11.2014 03:00 6,9 C 85 % 1002,5 hPa 0,3 l/m 0,0 km/h (0 Bft) N 0,00 h 0,000 mm 0,0 UV-I 0 W/m 4,5 C 6,9 C 0,0 km/h (0 Bft) 0,00 %
12.11.2014 04:00 6,9 C 85 % 1002,1 hPa 0,0 l/m 0,0 km/h (0 Bft) N 0,00 h 0,000 mm 0,0 UV-I 0 W/m 4,6 C 6,9 C 0,0 km/h (0 Bft) 0,00 %
12.11.2014 05:00 6,0 C 86 % 1002,3 hPa 0,0 l/m 0,0 km/h (0 Bft) N 0,00 h 0,000 mm 0,0 UV-I 0 W/m 3,8 C 6,0 C 0,0 km/h (0 Bft) 0,00 %
12.11.2014 06:00 4,9 C 86 % 1002,2 hPa 0,0 l/m 0,0 km/h (0 Bft) N 0,00 h 0,000 mm 0,0 UV-I 0 W/m 2,8 C 4,9 C 0,0 km/h (0 Bft) 0,00 %
12.11.2014 07:00 4,5 C 86 % 1002,5 hPa 0,0 l/m 0,0 km/h (0 Bft) N 0,00 h 0,000 mm 1,0 UV-I 11 W/m 2,4 C 4,5 C 0,0 km/h (0 Bft) 0,00 %
12.11.2014 08:00 5,9 C 85 % 1002,3 hPa 0,0 l/m 0,0 km/h (0 Bft) N 0,00 h 0,000 mm 1,0 UV-I 35 W/m 3,5 C 5,9 C 0,0 km/h (0 Bft) 0,00 %
12.11.2014 09:00 9,0 C 83 % 1001,8 hPa 0,0 l/m 0,0 km/h (0 Bft) N 0,00 h 0,000 mm 1,0 UV-I 73 W/m 6,2 C 9,0 C 0,0 km/h (0 Bft) 0,00 %
12.11.2014 10:00 11,3 C 76 % 1001,2 hPa 0,0 l/m 3,4 km/h (1 Bft) O-NO 0,00 h 0,000 mm 2,0 UV-I 100 W/m 7,1 C 10,7 C 4,9 km/h (1 Bft) 0,00 %
12.11.2014 11:00 13,3 C 69 % 1000,6 hPa 0,0 l/m 0,7 km/h (0 Bft) O 0,00 h 0,000 mm 2,0 UV-I 137 W/m 7,7 C 13,3 C 2,0 km/h (1 Bft) 0,00 %
12.11.2014 12:00 14,9 C 63 % 999,8 hPa 0,0 l/m 1,4 km/h (1 Bft) O-SO 0,00 h 0,000 mm 2,0 UV-I 116 W/m 8,0 C 14,9 C 4,0 km/h (1 Bft) 0,00 %
12.11.2014 13:00 16,2 C 60 % 999,3 hPa 0,0 l/m 0,9 km/h (0 Bft) O-SO 0,00 h 0,000 mm 1,0 UV-I 70 W/m 8,4 C 16,2 C 3,0 km/h (1 Bft) 0,00 %
12.11.2014 14:00 16,6 C 59 % 999,0 hPa 0,0 l/m 1,0 km/h (0 Bft) O-SO 0,00 h 0,000 mm 1,0 UV-I 30 W/m 8,6 C 16,6 C 2,0 km/h (1 Bft) 0,00 %
12.11.2014 15:00 16,1 C 61 % 999,2 hPa 0,0 l/m 0,0 km/h (0 Bft) N 0,00 h 0,000 mm 1,0 UV-I 26 W/m 8,6 C 16,1 C 0,0 km/h (0 Bft) 0,00 %
12.11.2014 16:00 14,1 C 70 % 999,8 hPa 0,0 l/m 0,0 km/h (0 Bft) N 0,00 h 0,000 mm 0,0 UV-I 0 W/m 8,8 C 14,1 C 0,0 km/h (0 Bft) 0,00 %
12.11.2014 17:00 11,7 C 79 % 1000,5 hPa 0,0 l/m 0,0 km/h (0 Bft) N 0,00 h 0,000 mm 0,0 UV-I 0 W/m 8,2 C 11,7 C 0,0 km/h (0 Bft) 0,00 %
12.11.2014 18:00 10,6 C 81 % 1001,0 hPa 0,0 l/m 0,0 km/h (0 Bft) N 0,00 h 0,000 mm 0,0 UV-I 0 W/m 7,5 C 10,6 C 0,0 km/h (0 Bft) 0,00 %
12.11.2014 19:00 10,1 C 83 % 1001,4 hPa 0,0 l/m 0,0 km/h (0 Bft) N 0,00 h 0,000 mm 0,0 UV-I 0 W/m 7,4 C 10,1 C 0,0 km/h (0 Bft) 0,00 %
12.11.2014 20:00 9,1 C 84 % 1002,0 hPa 0,0 l/m 0,0 km/h (0 Bft) N 0,00 h 0,000 mm 0,0 UV-I 0 W/m 6,6 C 9,1 C 0,0 km/h (0 Bft) 0,00 %
12.11.2014 21:00 8,6 C 85 % 1002,9 hPa 0,0 l/m 0,0 km/h (0 Bft) N 0,00 h 0,000 mm 0,0 UV-I 0 W/m 6,1 C 8,6 C 0,0 km/h (0 Bft) 0,00 %
12.11.2014 22:00 8,3 C 85 % 1004,0 hPa 0,0 l/m 0,4 km/h (0 Bft) S-SW 0,00 h 0,000 mm 0,0 UV-I 0 W/m 5,8 C 8,3 C 2,0 km/h (1 Bft) 0,00 %
12.11.2014 23:00 8,7 C 84 % 1004,9 hPa 0,0 l/m 3,0 km/h (1 Bft) SW 0,00 h 0,000 mm 0,0 UV-I 0 W/m 6,2 C 8,7 C 6,9 km/h (2 Bft) 0,00 %
13.11.2014 00:00 8,6 C 84 % 1005,8 hPa 0,0 l/m 0,6 km/h (0 Bft) W-SW 0,00 h 0,000 mm 0,0 UV-I 0 W/m 6,0 C 8,6 C 3,0 km/h (1 Bft) 0,00 %
13.11.2014 01:00 8,1 C 82 % 1007,0 hPa 0,0 l/m 0,9 km/h (0 Bft) W-SW 0,00 h 0,000 mm 0,0 UV-I 0 W/m 5,3 C 8,1 C 4,0 km/h (1 Bft) 0,00 %
13.11.2014 02:00 8,2 C 81 % 1007,3 hPa 0,0 l/m 0,9 km/h (0 Bft) W-SW 0,00 h 0,000 mm 0,0 UV-I 0 W/m 5,2 C 8,2 C 4,0 km/h (1 Bft) 0,00 %
13.11.2014 03:00 8,4 C 80 % 1007,8 hPa 0,0 l/m 0,4 km/h (0 Bft) N 0,00 h 0,000 mm 0,0 UV-I 0 W/m 5,1 C 8,4 C 1,0 km/h (0 Bft) 0,00 %
13.11.2014 04:00 8,4 C 81 % 1008,2 hPa 0,0 l/m 0,3 km/h (0 Bft) N 0,00 h 0,000 mm 0,0 UV-I 0 W/m 5,2 C 8,4 C 2,0 km/h (1 Bft) 0,00 %
13.11.2014 05:00 8,4 C 80 % 1008,8 hPa 0,0 l/m 0,0 km/h (0 Bft) N 0,00 h 0,000 mm 0,0 UV-I 0 W/m 5,2 C 8,4 C 0,0 km/h (0 Bft) 0,00 %
13.11.2014 06:00 8,3 C 81 % 1009,3 hPa 0,0 l/m 0,0 km/h (0 Bft) N 0,00 h 0,000 mm 0,0 UV-I 0 W/m 5,2 C 8,3 C 0,0 km/h (0 Bft) 0,00 %
13.11.2014 07:00 8,2 C 82 % 1010,0 hPa 0,0 l/m 0,0 km/h (0 Bft) N 0,00 h 0,000 mm 0,0 UV-I 3 W/m 5,3 C 8,2 C 0,0 km/h (0 Bft) 0,00 %
13.11.2014 08:00 8,6 C 81 % 1010,5 hPa 0,0 l/m 0,0 km/h (0 Bft) N 0,00 h 0,000 mm 0,0 UV-I 45 W/m 5,6 C 8,6 C 0,0 km/h (0 Bft) 0,00 %
13.11.2014 09:00 9,1 C 81 % 1010,7 hPa 0,3 l/m 0,0 km/h (0 Bft) N 0,00 h 0,000 mm 1,0 UV-I 96 W/m 6,0 C 9,1 C 0,0 km/h (0 Bft) 0,00 %
13.11.2014 10:00 9,9 C 76 % 1010,9 hPa 0,0 l/m 0,0 km/h (0 Bft) N 0,00 h 0,000 mm 1,7 UV-I 92 W/m 5,9 C 9,9 C 0,0 km/h (0 Bft) 0,00 %
13.11.2014 11:00 10,3 C 73 % 1010,8 hPa 0,0 l/m 0,0 km/h (0 Bft) N 0,00 h 0,000 mm 1,3 UV-I 120 W/m 5,6 C 10,3 C 0,0 km/h (0 Bft) 0,00 %
13.11.2014 12:00 11,0 C 70 % 1010,4 hPa 0,0 l/m 0,0 km/h (0 Bft) N 0,00 h 0,000 mm 2,0 UV-I 137 W/m 5,7 C 11,0 C 0,0 km/h (0 Bft) 0,00 %
13.11.2014 13:00 10,8 C 71 % 1010,6 hPa 0,0 l/m 0,1 km/h (0 Bft) N 0,00 h 0,000 mm 1,7 UV-I 110 W/m 5,7 C 10,8 C 1,0 km/h (0 Bft) 0,00 %
13.11.2014 14:00 10,5 C 72 % 1010,9 hPa 0,0 l/m 0,1 km/h (0 Bft) N 0,00 h 0,000 mm 1,0 UV-I 72 W/m 5,6 C 10,5 C 1,0 km/h (0 Bft) 0,00 %
13.11.2014 15:00 10,2 C 73 % 1011,5 hPa 0,0 l/m 0,0 km/h (0 Bft) N 0,00 h 0,000 mm 0,0 UV-I 34 W/m 5,6 C 10,2 C 0,0 km/h (0 Bft) 0,00 %
13.11.2014 16:00 9,9 C 74 % 1011,9 hPa 0,0 l/m 0,0 km/h (0 Bft) N 0,00 h 0,000 mm 0,0 UV-I 0 W/m 5,4 C 9,9 C 0,0 km/h (0 Bft) 0,00 %
13.11.2014 17:00 9,3 C 78 % 1012,4 hPa 0,0 l/m 0,0 km/h (0 Bft) N 0,00 h 0,000 mm 0,0 UV-I 0 W/m 5,7 C 9,3 C 0,0 km/h (0 Bft) 0,00 %
13.11.2014 18:00 9,1 C 79 % 1012,6 hPa 0,0 l/m 0,0 km/h (0 Bft) N 0,00 h 0,000 mm 0,0 UV-I 0 W/m 5,6 C 9,1 C 0,0 km/h (0 Bft) 0,00 %
13.11.2014 19:00 8,8 C 81 % 1012,7 hPa 0,0 l/m 0,0 km/h (0 Bft) N 0,00 h 0,000 mm 0,0 UV-I 0 W/m 5,7 C 8,8 C 0,0 km/h (0 Bft) 0,00 %
13.11.2014 20:00 8,5 C 83 % 1012,7 hPa 0,0 l/m 0,0 km/h (0 Bft) N 0,00 h 0,000 mm 0,0 UV-I 0 W/m 5,7 C 8,5 C 0,0 km/h (0 Bft) 0,00 %
13.11.2014 21:00 7,8 C 83 % 1012,9 hPa 0,0 l/m 0,0 km/h (0 Bft) N 0,00 h 0,000 mm 0,0 UV-I 0 W/m 5,1 C 7,8 C 0,0 km/h (0 Bft) 0,00 %
13.11.2014 22:00 6,8 C 84 % 1013,0 hPa 0,0 l/m 0,0 km/h (0 Bft) N 0,00 h 0,000 mm 0,0 UV-I 0 W/m 4,3 C 6,8 C 0,0 km/h (0 Bft) 0,00 %
13.11.2014 23:00 6,5 C 85 % 1013,3 hPa 0,0 l/m 0,0 km/h (0 Bft) N 0,00 h 0,000 mm 0,0 UV-I 0 W/m 4,1 C 6,5 C 0,0 km/h (0 Bft) 0,00 %
14.11.2014 00:00 6,7 C 85 % 1013,1 hPa 0,0 l/m 1,0 km/h (0 Bft) O 0,00 h 0,000 mm 0,0 UV-I 0 W/m 4,4 C 6,7 C 3,0 km/h (1 Bft) 0,00 %
14.11.2014 01:00 7,5 C 85 % 1012,6 hPa 0,0 l/m 5,4 km/h (1 Bft) O 0,00 h 0,000 mm 0,0 UV-I 0 W/m 5,1 C 7,2 C 7,9 km/h (2 Bft) 0,00 %
14.11.2014 02:00 7,7 C 84 % 1012,3 hPa 0,0 l/m 1,8 km/h (1 Bft) S 0,00 h 0,000 mm 0,0 UV-I 0 W/m 5,2 C 7,7 C 3,0 km/h (1 Bft) 0,00 %
14.11.2014 03:00 7,9 C 83 % 1011,9 hPa 0,0 l/m 4,0 km/h (1 Bft) O 0,00 h 0,000 mm 0,0 UV-I 0 W/m 5,2 C 7,7 C 6,9 km/h (2 Bft) 0,00 %
14.11.2014 04:00 7,8 C 83 % 1011,6 hPa 0,0 l/m 8,8 km/h (2 Bft) O 0,00 h 0,000 mm 0,0 UV-I 0 W/m 5,1 C 6,0 C 13,0 km/h (3 Bft) 0,00 %
14.11.2014 05:00 7,4 C 83 % 1011,7 hPa 0,0 l/m 9,1 km/h (2 Bft) O 0,00 h 0,000 mm 0,0 UV-I 0 W/m 4,6 C 5,3 C 14,0 km/h (3 Bft) 0,00 %
14.11.2014 06:00 7,0 C 83 % 1011,7 hPa 0,0 l/m 1,0 km/h (0 Bft) N 0,00 h 0,000 mm 0,0 UV-I 0 W/m 4,3 C 7,0 C 3,0 km/h (1 Bft) 0,00 %
14.11.2014 07:00 7,2 C 84 % 1011,6 hPa 0,0 l/m 0,2 km/h (0 Bft) N 0,00 h 0,000 mm 0,0 UV-I 0 W/m 4,7 C 7,2 C 2,0 km/h (1 Bft) 0,00 %
14.11.2014 08:00 7,2 C 84 % 1011,5 hPa 0,0 l/m 0,2 km/h (0 Bft) N 0,00 h 0,000 mm 0,0 UV-I 62 W/m 4,6 C 7,2 C 2,0 km/h (1 Bft) 0,00 %
14.11.2014 09:00 7,4 C 83 % 1010,9 hPa 0,0 l/m 0,9 km/h (0 Bft) O-NO 0,50 h 0,000 mm 1,0 UV-I 178 W/m 4,7 C 7,4 C 4,0 km/h (1 Bft) 0,00 %
14.11.2014 10:00 8,2 C 82 % 1010,6 hPa 0,0 l/m 2,5 km/h (1 Bft) O 1,00 h 0,000 mm 1,0 UV-I 337 W/m 5,3 C 7,7 C 5,0 km/h (1 Bft) 0,00 %
14.11.2014 11:00 9,1 C 78 % 1009,5 hPa 0,0 l/m 3,9 km/h (1 Bft) S-SO 1,00 h 0,000 mm 1,7 UV-I 606 W/m 5,5 C 9,0 C 8,9 km/h (2 Bft) 0,00 %
14.11.2014 12:00 9,9 C 76 % 1008,8 hPa 0,0 l/m 5,3 km/h (1 Bft) O 1,00 h 0,000 mm 2,0 UV-I 597 W/m 5,8 C 9,6 C 6,9 km/h (2 Bft) 0,00 %
14.11.2014 13:00 10,9 C 73 % 1008,3 hPa 0,0 l/m 6,6 km/h (2 Bft) O 1,00 h 0,000 mm 1,0 UV-I 480 W/m 6,2 C 10,0 C 11,9 km/h (2 Bft) 0,00 %
14.11.2014 14:00 10,7 C 74 % 1008,1 hPa 0,0 l/m 2,3 km/h (1 Bft) SO 1,00 h 0,000 mm 1,0 UV-I 312 W/m 6,3 C 10,7 C 4,9 km/h (1 Bft) 0,00 %
14.11.2014 15:00 9,9 C 79 % 1008,1 hPa 0,0 l/m 0,0 km/h (0 Bft) N 0,75 h 0,000 mm 1,0 UV-I 80 W/m 6,3 C 9,9 C 0,0 km/h (0 Bft) 0,00 %
14.11.2014 16:00 8,1 C 83 % 1007,7 hPa 0,0 l/m 0,0 km/h (0 Bft) N 0,00 h 0,000 mm 0,0 UV-I 0 W/m 5,4 C 8,1 C 0,0 km/h (0 Bft) 0,00 %
14.11.2014 17:00 7,0 C 84 % 1007,6 hPa 0,0 l/m 0,0 km/h (0 Bft) N 0,00 h 0,000 mm 0,0 UV-I 0 W/m 4,4 C 7,0 C 0,0 km/h (0 Bft) 0,00 %
14.11.2014 18:00 7,1 C 85 % 1007,6 hPa 0,0 l/m 0,1 km/h (0 Bft) N 0,00 h 0,000 mm 0,0 UV-I 0 W/m 4,7 C 7,1 C 1,0 km/h (0 Bft) 0,00 %
14.11.2014 19:00 7,2 C 85 % 1007,7 hPa 0,0 l/m 0,0 km/h (0 Bft) N 0,00 h 0,000 mm 0,0 UV-I 0 W/m 4,9 C 7,2 C 0,0 km/h (0 Bft) 0,00 %
14.11.2014 20:00 7,1 C 85 % 1007,8 hPa 0,0 l/m 0,1 km/h (0 Bft) N 0,00 h 0,000 mm 0,0 UV-I 0 W/m 4,8 C 7,1 C 1,0 km/h (0 Bft) 0,00 %
14.11.2014 21:00 7,1 C 85 % 1007,5 hPa 0,0 l/m 0,0 km/h (0 Bft) N 0,00 h 0,000 mm 0,0 UV-I 0 W/m 4,7 C 7,1 C 0,0 km/h (0 Bft) 0,00 %
14.11.2014 22:00 6,3 C 85 % 1007,3 hPa 0,0 l/m 0,0 km/h (0 Bft) N 0,00 h 0,000 mm 0,0 UV-I 0 W/m 3,9 C 6,3 C 0,0 km/h (0 Bft) 0,00 %
14.11.2014 23:00 5,8 C 85 % 1006,6 hPa 0,0 l/m 0,0 km/h (0 Bft) N 0,00 h 0,000 mm 0,0 UV-I 0 W/m 3,4 C 5,8 C 0,0 km/h (0 Bft) 0,00 %
15.11.2014 00:00 5,5 C 86 % 1006,9 hPa 0,3 l/m 0,0 km/h (0 Bft) N 0,00 h 0,000 mm 0,0 UV-I 0 W/m 3,2 C 5,5 C 0,0 km/h (0 Bft) 0,00 %
15.11.2014 01:00 5,7 C 85 % 1006,3 hPa 0,0 l/m 0,0 km/h (0 Bft) N 0,00 h 0,000 mm 0,0 UV-I 0 W/m 3,3 C 5,7 C 0,0 km/h (0 Bft) 0,00 %
15.11.2014 02:00 5,4 C 86 % 1005,8 hPa 0,0 l/m 0,0 km/h (0 Bft) N 0,00 h 0,000 mm 0,0 UV-I 0 W/m 3,2 C 5,4 C 0,0 km/h (0 Bft) 0,00 %
15.11.2014 03:00 5,3 C 86 % 1005,0 hPa 0,0 l/m 0,0 km/h (0 Bft) N 0,00 h 0,000 mm 0,0 UV-I 0 W/m 3,2 C 5,3 C 0,0 km/h (0 Bft) 0,00 %
15.11.2014 04:00 5,0 C 86 % 1004,7 hPa 0,0 l/m 0,0 km/h (0 Bft) N 0,00 h 0,000 mm 0,0 UV-I 0 W/m 2,8 C 5,0 C 0,0 km/h (0 Bft) 0,00 %
15.11.2014 05:00 4,5 C 86 % 1004,2 hPa 0,0 l/m 0,0 km/h (0 Bft) N 0,00 h 0,000 mm 0,0 UV-I 0 W/m 2,3 C 4,5 C 0,0 km/h (0 Bft) 0,00 %
15.11.2014 06:00 4,2 C 86 % 1003,9 hPa 0,0 l/m 0,0 km/h (0 Bft) N 0,00 h 0,000 mm 0,0 UV-I 0 W/m 2,0 C 4,2 C 0,0 km/h (0 Bft) 0,00 %
15.11.2014 07:00 4,2 C 86 % 1003,9 hPa 0,0 l/m 0,0 km/h (0 Bft) N 0,50 h 0,000 mm 0,0 UV-I 61 W/m 2,0 C 4,2 C 0,0 km/h (0 Bft) 0,00 %
15.11.2014 08:00 5,0 C 86 % 1003,8 hPa 0,0 l/m 0,0 km/h (0 Bft) N 1,00 h 0,000 mm 1,0 UV-I 291 W/m 2,8 C 5,0 C 0,0 km/h (0 Bft) 0,00 %
15.11.2014 09:00 6,9 C 84 % 1003,3 hPa 0,0 l/m 0,1 km/h (0 Bft) N 1,00 h 0,000 mm 1,3 UV-I 491 W/m 4,4 C 6,9 C 1,0 km/h (0 Bft) 0,00 %
15.11.2014 10:00 8,2 C 83 % 1003,1 hPa 0,0 l/m 0,2 km/h (0 Bft) N 1,00 h 0,000 mm 2,0 UV-I 625 W/m 5,4 C 8,2 C 1,0 km/h (0 Bft) 0,00 %
15.11.2014 11:00 9,7 C 75 % 1002,6 hPa 0,0 l/m 0,1 km/h (0 Bft) N 1,00 h 0,000 mm 2,0 UV-I 744 W/m 5,4 C 9,7 C 1,0 km/h (0 Bft) 0,00 %
15.11.2014 12:00 10,8 C 72 % 1002,1 hPa 0,0 l/m 0,6 km/h (0 Bft) O-SO 1,00 h 0,000 mm 2,0 UV-I 586 W/m 6,0 C 10,8 C 2,0 km/h (1 Bft) 0,00 %
15.11.2014 13:00 11,6 C 70 % 1001,4 hPa 0,0 l/m 1,0 km/h (0 Bft) O 1,00 h 0,000 mm 1,0 UV-I 458 W/m 6,4 C 11,6 C 3,0 km/h (1 Bft) 0,00 %
15.11.2014 14:00 12,1 C 70 % 1001,3 hPa 0,0 l/m 0,0 km/h (0 Bft) N 1,00 h 0,000 mm 1,0 UV-I 275 W/m 6,8 C 12,1 C 0,0 km/h (0 Bft) 0,00 %
15.11.2014 15:00 11,3 C 74 % 1001,1 hPa 0,0 l/m 0,0 km/h (0 Bft) N 0,50 h 0,000 mm 0,0 UV-I 49 W/m 6,9 C 11,3 C 0,0 km/h (0 Bft) 0,00 %
15.11.2014 16:00 9,5 C 79 % 1001,4 hPa 0,0 l/m 0,0 km/h (0 Bft) N 0,00 h 0,000 mm 0,0 UV-I 0 W/m 6,0 C 9,5 C 0,0 km/h (0 Bft) 0,00 %
15.11.2014 17:00 8,0 C 83 % 1001,2 hPa 0,0 l/m 0,0 km/h (0 Bft) N 0,00 h 0,000 mm 0,0 UV-I 0 W/m 5,3 C 8,0 C 0,0 km/h (0 Bft) 0,00 %
15.11.2014 18:00 7,3 C 84 % 1000,9 hPa 0,0 l/m 0,0 km/h (0 Bft) N 0,00 h 0,000 mm 0,0 UV-I 0 W/m 4,8 C 7,3 C 0,0 km/h (0 Bft) 0,00 %
15.11.2014 19:00 7,4 C 84 % 1000,0 hPa 0,0 l/m 0,4 km/h (0 Bft) O 0,00 h 0,000 mm 0,0 UV-I 0 W/m 4,9 C 7,4 C 1,0 km/h (0 Bft) 0,00 %
15.11.2014 20:00 7,9 C 82 % 999,0 hPa 0,0 l/m 4,1 km/h (1 Bft) O-SO 0,00 h 0,000 mm 0,0 UV-I 0 W/m 5,1 C 7,5 C 5,9 km/h (2 Bft) 0,00 %
15.11.2014 21:00 8,3 C 82 % 998,1 hPa 0,0 l/m 5,9 km/h (2 Bft) O-SO 0,00 h 0,000 mm 0,0 UV-I 0 W/m 5,3 C 8,1 C 8,9 km/h (2 Bft) 0,00 %
15.11.2014 22:00 8,0 C 81 % 997,3 hPa 0,0 l/m 4,5 km/h (1 Bft) O-SO 0,00 h 0,000 mm 0,0 UV-I 0 W/m 4,9 C 7,7 C 6,9 km/h (2 Bft) 0,00 %
15.11.2014 23:00 8,3 C 79 % 996,4 hPa 0,0 l/m 3,3 km/h (1 Bft) O-NO 0,00 h 0,000 mm 0,0 UV-I 0 W/m 4,7 C 8,3 C 5,9 km/h (2 Bft) 0,00 %
16.11.2014 00:00 8,6 C 76 % 995,9 hPa 0,0 l/m 2,3 km/h (1 Bft) O-SO 0,00 h 0,000 mm 0,0 UV-I 0 W/m 4,6 C 8,6 C 4,0 km/h (1 Bft) 0,00 %
16.11.2014 01:00 9,1 C 73 % 995,1 hPa 0,0 l/m 2,0 km/h (1 Bft) O-SO 0,00 h 0,000 mm 0,0 UV-I 0 W/m 4,5 C 9,1 C 4,0 km/h (1 Bft) 0,00 %
16.11.2014 02:00 10,3 C 69 % 994,8 hPa 0,0 l/m 3,1 km/h (1 Bft) O 0,00 h 0,000 mm 0,0 UV-I 0 W/m 4,8 C 10,3 C 5,9 km/h (2 Bft) 0,00 %
16.11.2014 03:00 10,5 C 69 % 995,0 hPa 0,0 l/m 4,1 km/h (1 Bft) O 0,00 h 0,000 mm 0,0 UV-I 0 W/m 5,0 C 10,5 C 7,9 km/h (2 Bft) 0,00 %
16.11.2014 04:00 9,7 C 72 % 995,8 hPa 0,0 l/m 2,5 km/h (1 Bft) SO 0,00 h 0,000 mm 0,0 UV-I 0 W/m 4,9 C 9,7 C 3,0 km/h (1 Bft) 0,00 %
16.11.2014 05:00 7,6 C 78 % 998,0 hPa 0,0 l/m 0,9 km/h (0 Bft) W-SW 0,00 h 0,000 mm 0,0 UV-I 0 W/m 4,1 C 7,6 C 2,0 km/h (1 Bft) 0,00 %
16.11.2014 06:00 7,4 C 78 % 999,3 hPa 0,0 l/m 3,7 km/h (1 Bft) W-SW 0,00 h 0,000 mm 0,0 UV-I 0 W/m 3,9 C 7,1 C 6,9 km/h (2 Bft) 0,00 %
16.11.2014 07:00 8,1 C 76 % 1000,6 hPa 0,0 l/m 1,3 km/h (1 Bft) SW 0,00 h 0,000 mm 0,0 UV-I 6 W/m 4,1 C 8,1 C 3,0 km/h (1 Bft) 0,00 %
16.11.2014 08:00 8,7 C 73 % 1001,9 hPa 0,0 l/m 0,3 km/h (0 Bft) N 1,00 h 0,000 mm 1,0 UV-I 186 W/m 4,1 C 8,7 C 2,0 km/h (1 Bft) 0,00 %
16.11.2014 09:00 9,6 C 68 % 1002,3 hPa 0,0 l/m 1,0 km/h (0 Bft) O 1,00 h 0,000 mm 1,0 UV-I 461 W/m 4,0 C 9,6 C 3,0 km/h (1 Bft) 0,00 %
16.11.2014 10:00 10,9 C 62 % 1002,6 hPa 0,0 l/m 2,1 km/h (1 Bft) SW 1,00 h 0,000 mm 2,0 UV-I 583 W/m 3,8 C 10,9 C 4,0 km/h (1 Bft) 0,00 %
16.11.2014 11:00 10,4 C 61 % 1002,6 hPa 0,0 l/m 3,8 km/h (1 Bft) W-SW 1,00 h 0,000 mm 2,0 UV-I 610 W/m 3,2 C 9,7 C 6,0 km/h (2 Bft) 0,00 %
16.11.2014 12:00 11,0 C 58 % 1002,8 hPa 0,0 l/m 3,8 km/h (1 Bft) W-SW 1,00 h 0,000 mm 1,7 UV-I 517 W/m 3,0 C 11,0 C 5,9 km/h (2 Bft) 0,00 %
16.11.2014 13:00 10,9 C 59 % 1003,2 hPa 0,0 l/m 0,4 km/h (0 Bft) W-SW 1,00 h 0,000 mm 1,0 UV-I 433 W/m 3,2 C 10,9 C 2,0 km/h (1 Bft) 0,00 %
16.11.2014 14:00 10,3 C 61 % 1003,6 hPa 0,0 l/m 0,2 km/h (0 Bft) N 1,00 h 0,000 mm 1,0 UV-I 187 W/m 3,0 C 10,3 C 1,0 km/h (0 Bft) 0,00 %
16.11.2014 15:00 10,2 C 61 % 1003,9 hPa 0,0 l/m 0,0 km/h (0 Bft) N 0,25 h 0,000 mm 0,0 UV-I 57 W/m 3,1 C 10,2 C 0,0 km/h (0 Bft) 0,00 %
16.11.2014 16:00 9,1 C 67 % 1004,4 hPa 0,0 l/m 0,0 km/h (0 Bft) N 0,00 h 0,000 mm 0,0 UV-I 0 W/m 3,4 C 9,1 C 0,0 km/h (0 Bft) 0,00 %
16.11.2014 17:00 8,2 C 72 % 1004,8 hPa 0,0 l/m 0,8 km/h (0 Bft) O-SO 0,00 h 0,000 mm 0,0 UV-I 0 W/m 3,4 C 8,2 C 2,0 km/h (1 Bft) 0,00 %
16.11.2014 18:00 7,3 C 74 % 1005,0 hPa 0,0 l/m 0,3 km/h (0 Bft) O 0,00 h 0,000 mm 0,0 UV-I 0 W/m 3,0 C 7,3 C 1,0 km/h (0 Bft) 0,00 %
16.11.2014 19:00 6,7 C 74 % 1004,8 hPa 0,0 l/m 0,1 km/h (0 Bft) N 0,00 h 0,000 mm 0,0 UV-I 0 W/m 2,3 C 6,7 C 1,0 km/h (0 Bft) 0,00 %
16.11.2014 20:00 6,3 C 75 % 1004,5 hPa 0,0 l/m 0,5 km/h (0 Bft) S 0,00 h 0,000 mm 0,0 UV-I 0 W/m 2,1 C 6,3 C 2,0 km/h (1 Bft) 0,00 %
16.11.2014 21:00 5,3 C 79 % 1004,7 hPa 0,0 l/m 0,0 km/h (0 Bft) N 0,00 h 0,000 mm 0,0 UV-I 0 W/m 1,9 C 5,3 C 0,0 km/h (0 Bft) 0,00 %
16.11.2014 22:00 4,7 C 81 % 1004,8 hPa 0,0 l/m 0,2 km/h (0 Bft) N 0,00 h 0,000 mm 0,0 UV-I 0 W/m 1,6 C 4,7 C 1,0 km/h (0 Bft) 0,00 %
16.11.2014 23:00 3,8 C 83 % 1005,0 hPa 0,0 l/m 0,0 km/h (0 Bft) N 0,00 h 0,000 mm 0,0 UV-I 0 W/m 1,2 C 3,8 C 0,0 km/h (0 Bft) 0,00 %
Min-Datum _ 16.11.14 16.11.14 16.11.14 - 10.11.14 - - - - - 16.11.14 14.11.14 10.11.14 10.11.14
_ Min-Zeit 23:30 11:45 02:00 - 01:15 - - - - - 23:30 04:00 01:15 00:00
Minimum _ 3,7 C 57 % 994,7 hPa - 0,0 km/h (0 Bft) - - - - - 1,1 C 0,8 C 0,0 km/h (0 Bft) 0,00 %
Max-Datum _ 12.11.14 12.11.14 13.11.14 10.11.14 14.11.14 - 10.11.14 10.11.14 12.11.14 15.11.14 12.11.14 12.11.14 14.11.14 10.11.14
_ Max-Zeit 14:15 00:30 23:45 01:30 04:00 - 08:45 00:00 10:15 11:15 16:15 14:15 04:00 00:00
Maximum _ 16,7 C 86 % 1013,5 hPa 0,3 l/m 19,8 km/h
O (3 Bft)
- 0,25 h 0,000 mm 2,0 UV-I 774 W/m 9,3 C 16,7 C 28,1 km/h
O (4 Bft)
0,00 %
Durchschnitt _ 8,3 C 80 % 1006,6 hPa #1,2 l/m 0,9 km/h (0 Bft) O-SO #31:15 h #0,000 mm 1,3 UV-I 225 W/m 5,0 C 8,3 C 1,9 km/h (1 Bft) 0,00 %